When you browse on this site, cookies collect data to enhance your experience and personalize the content and advertising you see.
Visit our Privacy Policy to learn more. By continuing to use the site, you agree to this use of cookies and data.
  • en France
  • Liste des pays
  • À 7 jours
  • Température de l'eau
  • Carte satellitaire
  • Carte météo
  • Widgets météo
  • user-avatar
    Se connecter

    Météo par heure à Silistra

    Ce jour, 23 Mars, Samedi

    Heure Température Précipitation Vent Pression Humidité
    00:00 +10°C° 0 mm 2 m/s 764 mmHg 56%
    01:00 +10°C° 0 mm 2 m/s 764 mmHg 60%
    02:00 +10°C° 0 mm 2 m/s 764 mmHg 64%
    03:00 +10°C° 0 mm 2 m/s 764 mmHg 66%
    04:00 +11°C° 0 mm 1 m/s 764 mmHg 68%
    05:00 +11°C° 0 mm 1 m/s 763 mmHg 70%
    06:00 +12°C° 0 mm 2 m/s 763 mmHg 66%
    07:00 +11°C° 0 mm 3 m/s 763 mmHg 62%
    08:00 +11°C° 0 mm 4 m/s 763 mmHg 58%
    09:00 +11°C° 0 mm 4 m/s 763 mmHg 56%
    10:00 +11°C° 0 mm 4 m/s 763 mmHg 53%
    11:00 +11°C° 0 mm 4 m/s 763 mmHg 51%
    12:00 +11°C° 0 mm 4 m/s 763 mmHg 48%
    13:00 +11°C° 0 mm 3 m/s 763 mmHg 44%
    14:00 +11°C° 0 mm 3 m/s 763 mmHg 41%
    15:00 +12°C° 0 mm 2 m/s 763 mmHg 39%
    16:00 +12°C° 0 mm 2 m/s 763 mmHg 37%
    17:00 +12°C° 0 mm 1 m/s 762 mmHg 35%
    18:00 +10°C° 0 mm 2 m/s 763 mmHg 35%
    19:00 +9°C° 0 mm 2 m/s 763 mmHg 35%
    20:00 +9°C° 0 mm 2 m/s 764 mmHg 34%
    21:00 +8°C° 0 mm 2 m/s 764 mmHg 37%
    22:00 +8°C° 0 mm 1 m/s 764 mmHg 39%
    23:00 +7°C° 0 mm 1 m/s 764 mmHg 41%

    Demain, 24 Mars, Dimanche

    Heure Température Précipitation Vent Pression Humidité
    00:00 +7°C° 0 mm 1 m/s 764 mmHg 42%
    01:00 +6°C° 0 mm 1 m/s 764 mmHg 43%
    02:00 +5°C° 0 mm 0 m/s 764 mmHg 45%
    03:00 +6°C° 0 mm 1 m/s 764 mmHg 47%
    04:00 +5°C° 0 mm 1 m/s 764 mmHg 49%
    05:00 +5°C° 0 mm 1 m/s 763 mmHg 51%
    06:00 +5°C° 0 mm 1 m/s 763 mmHg 50%
    07:00 +6°C° 0 mm 1 m/s 763 mmHg 49%
    08:00 +7°C° 0 mm 1 m/s 763 mmHg 48%
    09:00 +8°C° 0 mm 2 m/s 763 mmHg 43%
    10:00 +9°C° 0 mm 2 m/s 763 mmHg 38%
    11:00 +12°C° 0 mm 2 m/s 763 mmHg 34%
    12:00 +12°C° 0 mm 2 m/s 763 mmHg 31%
    13:00 +13°C° 0 mm 2 m/s 762 mmHg 29%
    14:00 +14°C° 0 mm 2 m/s 762 mmHg 26%
    15:00 +14°C° 0 mm 2 m/s 761 mmHg 26%
    16:00 +15°C° 0 mm 1 m/s 761 mmHg 26%
    17:00 +15°C° 0 mm 1 m/s 760 mmHg 26%
    18:00 +14°C° 0 mm 1 m/s 760 mmHg 30%
    19:00 +12°C° 0 mm 1 m/s 761 mmHg 33%
    20:00 +10°C° 0 mm 2 m/s 761 mmHg 37%
    21:00 +9°C° 0 mm 2 m/s 761 mmHg 39%
    22:00 +9°C° 0 mm 2 m/s 761 mmHg 41%
    23:00 +9°C° 0 mm 2 m/s 760 mmHg 43%

    Après-demain, 25 Mars, Lundi

    Heure Température Précipitation Vent Pression Humidité
    00:00 +8°C° 0 mm 3 m/s 760 mmHg 46%
    01:00 +8°C° 0 mm 3 m/s 760 mmHg 48%
    02:00 +7°C° 0 mm 3 m/s 759 mmHg 50%
    03:00 +7°C° 0 mm 3 m/s 759 mmHg 52%
    04:00 +7°C° 0 mm 3 m/s 759 mmHg 53%
    05:00 +7°C° 0 mm 2 m/s 758 mmHg 55%
    06:00 +8°C° 0 mm 3 m/s 758 mmHg 53%
    07:00 +9°C° 0 mm 3 m/s 758 mmHg 52%
    08:00 +10°C° 0 mm 3 m/s 758 mmHg 50%
    09:00 +12°C° 0 mm 3 m/s 757 mmHg 44%
    10:00 +14°C° 0 mm 3 m/s 757 mmHg 38%
    11:00 +17°C° 0 mm 3 m/s 756 mmHg 32%
    12:00 +18°C° 0 mm 3 m/s 755 mmHg 29%
    13:00 +19°C° 0 mm 4 m/s 755 mmHg 27%
    14:00 +20°C° 0 mm 4 m/s 754 mmHg 24%
    15:00 +20°C° 0 mm 3 m/s 754 mmHg 26%
    16:00 +20°C° 0 mm 3 m/s 753 mmHg 27%
    17:00 +20°C° 0 mm 3 m/s 753 mmHg 28%
    18:00 +18°C° 0 mm 3 m/s 753 mmHg 34%
    19:00 +16°C° 0 mm 3 m/s 753 mmHg 40%
    20:00 +13°C° 0 mm 3 m/s 753 mmHg 47%
    21:00 +12°C° 0 mm 4 m/s 753 mmHg 50%
    22:00 +12°C° 0 mm 4 m/s 753 mmHg 53%
    23:00 +11°C° 0 mm 4 m/s 753 mmHg 56%

    26 Mars, Mardi

    Heure Température Précipitation Vent Pression Humidité
    00:00 +11°C° 0 mm 4 m/s 753 mmHg 56%
    01:00 +10°C° 0 mm 4 m/s 753 mmHg 57%
    02:00 +10°C° 0 mm 3 m/s 753 mmHg 58%
    03:00 +10°C° 0 mm 3 m/s 753 mmHg 58%
    04:00 +10°C° 0 mm 2 m/s 753 mmHg 59%
    05:00 +9°C° 0 mm 2 m/s 753 mmHg 60%
    06:00 +10°C° 0 mm 2 m/s 753 mmHg 60%
    07:00 +12°C° 0 mm 2 m/s 753 mmHg 60%
    08:00 +11°C° 0 mm 3 m/s 754 mmHg 60%
    09:00 +12°C° 0 mm 4 m/s 754 mmHg 59%
    10:00 +12°C° 0 mm 5 m/s 755 mmHg 58%
    11:00 +13°C° 0 mm 6 m/s 755 mmHg 57%
    12:00 +11°C° 0.2 mm 7 m/s 755 mmHg 59%
    13:00 +9°C° 0.2 mm 7 m/s 756 mmHg 62%
    14:00 +7°C° 0.2 mm 8 m/s 756 mmHg 64%
    15:00 +8°C° 0.3 mm 7 m/s 756 mmHg 62%
    16:00 +7°C° 0.3 mm 6 m/s 757 mmHg 61%
    17:00 +7°C° 0.3 mm 5 m/s 757 mmHg 59%
    18:00 +7°C° 0 mm 4 m/s 758 mmHg 58%
    19:00 +8°C° 0 mm 3 m/s 758 mmHg 57%
    20:00 +7°C° 0 mm 3 m/s 759 mmHg 56%
    21:00 +6°C° 0 mm 4 m/s 759 mmHg 56%
    22:00 +6°C° 0 mm 4 m/s 760 mmHg 55%
    23:00 +5°C° 0 mm 5 m/s 760 mmHg 55%

    27 Mars, Mercredi

    Heure Température Précipitation Vent Pression Humidité
    00:00 +5°C° 0 mm 5 m/s 760 mmHg 58%
    01:00 +3°C° 0 mm 5 m/s 761 mmHg 61%
    02:00 +3°C° 0 mm 5 m/s 761 mmHg 64%
    03:00 +2°C° 0 mm 5 m/s 761 mmHg 62%
    04:00 +2°C° 0 mm 5 m/s 762 mmHg 60%
    05:00 +1°C° 0 mm 5 m/s 762 mmHg 59%
    06:00 +2°C° 0 mm 5 m/s 762 mmHg 56%
    07:00 +3°C° 0 mm 5 m/s 763 mmHg 53%
    08:00 +3°C° 0 mm 6 m/s 763 mmHg 50%
    09:00 +6°C° 0 mm 5 m/s 763 mmHg 45%
    10:00 +7°C° 0 mm 5 m/s 763 mmHg 41%
    11:00 +8°C° 0 mm 5 m/s 763 mmHg 36%
    12:00 +9°C° 0 mm 5 m/s 763 mmHg 34%
    13:00 +11°C° 0 mm 4 m/s 763 mmHg 32%
    14:00 +11°C° 0 mm 4 m/s 763 mmHg 29%
    15:00 +11°C° 0 mm 4 m/s 763 mmHg 30%
    16:00 +11°C° 0 mm 3 m/s 762 mmHg 30%
    17:00 +11°C° 0 mm 3 m/s 762 mmHg 30%
    18:00 +10°C° 0 mm 2 m/s 763 mmHg 33%
    19:00 +9°C° 0 mm 1 m/s 763 mmHg 35%
    20:00 +8°C° 0 mm 1 m/s 764 mmHg 38%
    21:00 +8°C° 0 mm 1 m/s 764 mmHg 39%
    22:00 +8°C° 0 mm 1 m/s 764 mmHg 41%
    23:00 +8°C° 0 mm 1 m/s 764 mmHg 42%

    28 Mars, Jeudi

    Heure Température Précipitation Vent Pression Humidité
    00:00 +6°C° 0 mm 2 m/s 764 mmHg 47%
    01:00 +6°C° 0 mm 2 m/s 764 mmHg 51%
    02:00 +5°C° 0 mm 3 m/s 765 mmHg 56%
    03:00 +4°C° 0 mm 3 m/s 765 mmHg 56%
    04:00 +4°C° 0 mm 3 m/s 765 mmHg 56%
    05:00 +4°C° 0 mm 3 m/s 765 mmHg 57%
    06:00 +4°C° 0 mm 4 m/s 765 mmHg 55%
    07:00 +4°C° 0 mm 4 m/s 766 mmHg 53%
    08:00 +5°C° 0 mm 5 m/s 766 mmHg 51%
    09:00 +6°C° 0 mm 5 m/s 766 mmHg 45%
    10:00 +7°C° 0 mm 6 m/s 766 mmHg 40%
    11:00 +8°C° 0 mm 6 m/s 767 mmHg 34%
    12:00 +8°C° 0 mm 6 m/s 766 mmHg 33%
    13:00 +9°C° 0 mm 6 m/s 766 mmHg 32%
    14:00 +10°C° 0 mm 6 m/s 766 mmHg 31%
    15:00 +9°C° 0 mm 6 m/s 766 mmHg 31%
    16:00 +9°C° 0 mm 5 m/s 766 mmHg 32%
    17:00 +9°C° 0 mm 5 m/s 765 mmHg 33%
    18:00 +8°C° 0 mm 4 m/s 766 mmHg 37%
    19:00 +8°C° 0 mm 3 m/s 766 mmHg 41%
    20:00 +7°C° 0 mm 2 m/s 766 mmHg 44%
    21:00 +7°C° 0 mm 2 m/s 766 mmHg 47%
    22:00 +7°C° 0 mm 2 m/s 766 mmHg 50%
    23:00 +7°C° 0 mm 2 m/s 766 mmHg 52%
    Voir plus